This demonstration page uses our WeatherBlox Daily Observations layout. Learn more.

Left ArrowRight Arrow

Hourly Observations for January 23, 2016

Temp ( °F °C ) Dew Point ( °F °C ) Humidity (%) Winds ( mph kmh ) Pressure ( in mb ) Visibility ( mi km ) Precip ( " mm )
12:53 am 00:53 Cloudy 31 -0.6 25 -3.9 79 79 NNW 14 22 29.71 1006 10 16 0.00 0.03
1:10 am 01:10 Cloudy 31 -0.6 25 -3.9 79 79 NW 15 24 29.77 1008 10 16 0.00 0.00
1:53 am 01:53 Cloudy with Light Snow 30 -1.1 23 -5 75 75 NW 18 30 29.74 1007 6 10 0.00 0.03
2:53 am 02:53 Cloudy 30 -1.1 22 -5.6 72 72 NW 20 31 29.75 1008 10 16 0.00 0.03
3:53 am 03:53 Cloudy 29 -1.7 20 -6.7 69 69 NNW 17 28 29.76 1008 10 16 0.00 0.00
4:53 am 04:53 Cloudy 29 -1.7 20 -6.7 69 69 NNW 20 31 29.77 1008 10 16 0.00 0.00
5:53 am 05:53 Cloudy 29 -1.7 19 -7.2 66 66 NW 17 28 29.80 1009 8 13 0.00 0.00
6:53 am 06:53 Cloudy 29 -1.7 19 -7.2 66 66 NNW 20 31 29.84 1010 10 16 0.00 0.00
7:53 am 07:53 Cloudy 28 -2.2 18 -7.8 66 66 NNW 16 26 29.88 1012 10 16 0.00 0.00
8:53 am 08:53 Cloudy with Light Snow 28 -2.2 19 -7.2 69 69 NW 15 24 29.91 1013 4 6 0.00 0.03
9:10 am 09:10 Cloudy with Light Snow 28 -2 19 -7 69 69 NW 15 24 29.97 1015 2 3 0.00 0.00
9:17 am 09:17 Cloudy with Light Snow 27 -2.8 20 -6.7 75 75 WNW 15 24 29.97 1015 2 2 0.00 0.03
9:53 am 09:53 Cloudy with Light Snow 27 -2.8 21 -6.1 78 78 NW 13 20 29.94 1014 2 2 0.00 0.03
10:16 am 10:16 Cloudy with Light Snow 27 -3 21 -6 80 80 NW 17 28 30.00 1016 3 4 0.00 0.00
10:26 am 10:26 Cloudy with Light Snow 27 -3 19 -7 74 74 NW 10 17 30.00 1016 4 6 0.00 0.00
10:53 am 10:53 Windy with Snow Likely 28 -2.2 19 -7.2 69 69 NNW 22 35 29.95 1014 8 13 0.00 0.03
11:53 am 11:53 Cloudy 28 -2.2 18 -7.8 66 66 NW 20 31 29.95 1014 10 16 0.00 0.03
12:49 pm 12:49 Cloudy 28 -2 18 -8 64 64 NNW 20 31 30.00 1016 10 16 0.00 0.03
12:53 pm 12:53 Cloudy 29 -1.7 18 -7.8 63 63 NNW 21 33 29.95 1014 10 16 0.00 0.03
1:53 pm 13:53 Mostly Sunny 32 0 19 -7.2 59 59 NW 25 41 29.94 1014 10 16 0.00 0.00
2:53 pm 14:53 Sunny 33 0.6 19 -7.2 56 56 NNW 18 30 29.93 1013 10 16 0.00 0.00
3:53 pm 15:53 Partly Cloudy 33 0.6 20 -6.7 58 58 NNW 17 28 29.97 1015 10 16 0.00 0.00
4:53 pm 16:53 Mostly Sunny 31 -0.6 20 -6.7 64 64 NW 17 28 30.00 1016 10 16 0.00 0.00
5:06 pm 17:06 Cloudy 30 -1 19 -7 64 64 NNW 10 17 30.03 1017 10 16 0.00 0.00
5:53 pm 17:53 Cloudy 30 -1.1 20 -6.7 66 66 NW 9 15 30.02 1017 10 16 0.00 0.00
6:53 pm 18:53 Cloudy 30 -1.1 20 -6.7 66 66 NW 13 20 30.06 1018 10 16 0.00 0.00
7:53 pm 19:53 Cloudy 30 -1.1 20 -6.7 66 66 NNW 14 22 30.07 1018 10 16 0.00 0.00
8:53 pm 20:53 Cloudy 29 -1.7 19 -7.2 66 66 NNW 12 19 30.09 1019 10 16 0.00 0.00
9:53 pm 21:53 Cloudy 28 -2.2 19 -7.2 69 69 NNW 14 22 30.10 1019 10 16 0.00 0.00
10:53 pm 22:53 Mostly Clear 28 -2.2 18 -7.8 66 66 NNW 16 26 30.10 1019 10 16 0.00 0.00
11:53 pm 23:53 Clear 27 -2.8 17 -8.3 66 66 NNW 13 20 30.11 1020 10 16 0.00 0.00

Powered by AerisWeather